Regional Weather Roundup
Issued by NWS

Home | Current Version | Previous Version | Text Only | Print | Product List | Glossary On
Versions: 1 2 3 4 5 6 7 8 9 10 11 12 13 14 15 16 17 18 19 20 21 22 23 24 25 26 27 28 29 30 31 32 33 34 35 36 37 38 39 40 41 42 43 44 45 46 47 48 49 50
000
ASUS44 KFWD 272110
RWRTX
NORTH TEXAS HOURLY WEATHER ROUNDUP
NATIONAL WEATHER SERVICE FORT WORTH TX
400 PM CDT THU JUL 27 2017

NOTE: "FAIR" INDICATES FEW OR NO CLOUDS BELOW 12,000 FEET WITH NO
SIGNIFICANT WEATHER AND/OR OBSTRUCTIONS TO VISIBILITY.

TXZ118-119-272200-
DALLAS/FORT WORTH METROPLEX

CITY           SKY/WX    TMP DP  RH WIND       PRES   REMARKS
DFW AIRPORT    CLOUDY    99  68  36 SW8       29.93F HX 104
DALLAS LOVE    CLOUDY    99  65  32 S8        29.94F HX 102
FTW MEACHAM    MOSUNNY   99  68  36 S10       29.94F HX 104
DAL-EXECUTIVE  MOSUNNY   96  65  35 SW5       29.95F HX  98
FTW-ALLIANCE   PTSUNNY   97  69  40 VRB7      29.94F HX 103
FTW-NAS-JRB    PTSUNNY   99  65  32 SE13      29.94F HX 102
FTW-SPINKS     SUNNY     99  63  30 S7        29.96F HX 100
ARLINGTON      MOSUNNY   97  68  38 SE8       29.95F HX 102
GRAND PRAIRIE  SUNNY     97  63  32 S8        29.96F HX  98
MESQUITE       SUNNY     97  64  34 S9        29.96F HX  99
LANCASTER      CLOUDY    99  66  34 S9        29.96F HX 102
$$

TXZ091>094-102>105-117-120-121-131>134-272200-
NORTH CENTRAL TEXAS

CITY           SKY/WX    TMP DP  RH WIND       PRES   REMARKS
SHRMAN/DENISON CLOUDY    95  69  41 SW9       29.95F HX 101
GAINESVILLE    CLOUDY    94  69  44 S8        29.97F HX  99
BOWIE          CLOUDY    95  69  42 SE6       29.96F HX 101
BRIDGEPORT     CLOUDY    95  66  37 E6        29.96F HX  98
DECATUR        CLOUDY    96  68  39 SE5       29.97F HX 100
DENTON         CLOUDY    95  72  47 S7        29.95F HX 103
MCKINNEY       MOSUNNY   97  70  41 S6        29.95F HX 103
BONHAM         MOSUNNY   93  72  49 S12       29.95F HX 100
GREENVILLE     PTSUNNY   99  64  32 SW5       29.97F HX 101
ROCKWALL       PTSUNNY   96  70  42 S9G17     29.96F HX 101
TERRELL        PTSUNNY   97  67  37 S12       29.96F HX 101
WAXAHACHIE     SUNNY     99  66  33 S8        29.97F HX 103
CLEBURNE       SUNNY    100  63  28 S10       29.97F HX 102
GRANBURY       SUNNY    101  61  26 SE7       29.96F HX 102
$$

TXZ083>090-098>101-113>116-127>130-139>142-154-155-272200-
WESTERN NORTH TEXAS

CITY           SKY/WX    TMP DP  RH WIND       PRES   REMARKS
WICHITA FALLS  PTSUNNY  100  62  28 S10       29.92F HX 101
WF-KICKAPOO    MOSUNNY  100  63  28 S3        29.95F HX 102
VERNON         MOSUNNY  101  49  17 S5        29.93F HX  98
ABILENE        SUNNY     97  58  27 SE10      29.98F HX  96
ABILENE-DYESS  PTSUNNY   99  60  27 SE9       29.97F HX  99
GRAHAM         MOSUNNY  102  61  25 CALM      29.93F HX 103
BRECKENRIDGE   CLOUDY   101  56  22 SE8       29.95F HX 100
CISCO          SUNNY     99  61  28 S9G16     30.00F HX  99
EASTLAND       CLOUDY    98  62  30 S8        29.98F HX  99
RANGER         CLOUDY    96  60  30 CALM      29.99F HX  96
MINERAL WELLS  MOSUNNY  100  63  29 S5G18     29.94F HX 102
STEPHENVILLE   MOSUNNY   99  59  26 S7        30.01F HX  99
COMANCHE       SUNNY    100  63  29 SW7       29.99F HX 101
BROWNWOOD      LGT RAIN  99  57  25 S9        29.98F HX  97
COLEMAN        SUNNY     99  56  24 SE8       29.99F HX  97
$$

TXZ143>147-156>162-174-175-272200-
CENTRAL TEXAS

CITY           SKY/WX    TMP DP  RH WIND       PRES   REMARKS
WACO           SUNNY     99  65  32 SE9       29.95F HX 102
WACO-TSTC      SUNNY     99  64  32 SE6       29.95F HX 101
WACO-MCGREGOR  SUNNY    101  66  31 S12       29.96F HX 105
HILLSBORO      MOSUNNY   98  67  35 S13       29.96F HX 103
CORSICANA      MOSUNNY   98  69  38 S13       29.97F HX 104
MEXIA          SUNNY     96  69  41 S7G21     29.97F HX 101
HEARNE         SUNNY     98  67  36 SE9       29.97F HX 102
CAMERON        SUNNY     99  64  31 S3        29.96F HX 101
TEMPLE         SUNNY    100  65  31 SE10      29.97F HX 103
KILLEEN        SUNNY    104  70  33 SE10G18   29.97F HX 112
KILLEEN-SKYLRK SUNNY    100  68  35 S9        29.97F HX 105
FORT HOOD      SUNNY     99  63  31 S7        29.95F HX 100
HAMILTON       SUNNY    100  60  27 SW7       30.00F HX 100
LAMPASAS       MOSUNNY   98  64  31 SW9G20    29.98F HX 100
$$

TXZ095>097-106>112-122>126-135>138-148>153-164>167-272200-
EAST TEXAS

CITY           SKY/WX    TMP DP  RH WIND       PRES   REMARKS
PARIS          MOSUNNY   96  75  50 S12       29.96F HX 108
SULPHUR SPRNGS CLOUDY    96  68  40 SW12      29.98F HX 100
MOUNT PLEASANT MOSUNNY   96  66  37 SW9       29.97F HX  99
GILMER         CLOUDY    94  70  45 SW6       29.97F HX  99
MINEOLA        MOSUNNY   93  72  49 SE7       29.97F HX 100
TYLER          CLOUDY    96  66  37 SW13      29.98F HX  99
LONGVIEW       CLOUDY    96  73  47 SW12      29.97F HX 105
MARSHALL         N/A     95  66  38 S6        29.98F HX  98
ATHENS         SUNNY     95  68  41 S5        29.96F HX  99
PALESTINE      SUNNY     95  70  44 SW9       30.00F HX 101
JACKSONVILLE   SUNNY     93  71  48 SW5       30.03F HX 100
HENDERSON      MOSUNNY   94  73  50 S7        30.00F HX 103
CENTER         HAZE      95  75  52 SW6       30.00F VSB 1   HX 107
NACOGDOCHES    SUNNY     93  73  52 W7        29.97F HX 102
LUFKIN         SUNNY     93  73  52 S8        29.99F HX 102
$$

SUPPLEMENTAL OBSERVATIONS (NWS FORT WORTH AREA)

CITY           SKY/WX    TMP DP  RH WIND       PRES   REMARKS
CADDO GRASSLND   N/A     95  72  46 S8          N/A  HX 103
LBJ GRASSLAND    N/A     97  70  41 SE7         N/A  HX 103
POSSUM KINGDOM   N/A    104  59  22 S9          N/A  HX 104
GRANBURY         N/A    102  63  27 E6G15       N/A  HX 104
MCGREGOR         N/A    100  61  27 S9G17       N/A  HX 101
TEMPLE           N/A     99  64  32 S8G16       N/A  HX 101
$$

SUPPLEMENTAL OBSERVATIONS (NWS NORMAN AREA)

CITY           SKY/WX    TMP DP  RH WIND       PRES   REMARKS
GOODLETT         N/A    103  53  19 S9        29.94F HX 101
ODELL            N/A    101  62  28 SE5       29.94F HX 102
CROWELL          N/A    105  60  23 SW8       29.94F HX 105
KNOX CITY        N/A    100  55  22 SE8       29.96F HX  98
SEYMOUR          N/A    103  54  20 S6G12     29.94F HX 101
MILLERS CREEK    N/A    100  59  25 S6          N/A  HX 100
$$

SUPPLEMENTAL OBSERVATIONS (NWS SAN ANGELO AREA)

CITY           SKY/WX    TMP DP  RH WIND       PRES   REMARKS
WEINERT          N/A    100  62  28 S12       29.96F HX 101
HASKELL          N/A     99  56  24 S8G15     29.96F HX  97
THROCKMORTON     N/A    103  63  27 SE7       29.96F HX 105
STAMFORD         N/A    101  58  24 S8        29.96F HX 101
CLYDE            N/A     98  60  29 S9        30.01F HX  98
HAMBY            N/A    100  55  22 S7G17       N/A  HX  99
$$

SUPPLEMENTAL OBSERVATIONS (NWS SHREVEPORT AREA)

CITY           SKY/WX    TMP DP  RH WIND       PRES   REMARKS
TEXARKANA        N/A     95  72  46 SW3         N/A  HX 103
LINDEN           N/A     99  68  36 SW6         N/A  HX 104
LUFKIN           N/A     95  72  46 MISG        N/A  HX 103
N SABINE NF      N/A     95  73  49 MISG        N/A  HX 105
$$

SUPPLEMENTAL OBSERVATIONS ARE A COLLECTION OF AUTOMATED INSTRUMENTS
THAT ARE MAINTAINED BY A VARIETY OF FEDERAL AND STATE AGENCIES.
CERTAIN ELEMENTS...SUCH AS HUMIDITY VALUES AND SUSTAINED WIND
SPEEDS...MAY BE APPROXIMATED.





USA.gov is the U.S. government's official web portal to all federal, state and local government web resources and services.